FW2402 Weather Reports


time (UTC)temp
F
wind
direction
speed
knots
gust
knots
rain 1hr
in
rain 24hr
in
rain mn
in
humidity
%
barometer
mb
20260507135021 82 155 0.9 7.8 0.00 0.00 0.00 69 1015.3
20260507134535 82 187 2.6 7.8 0.00 0.00 0.00 69 1015.3
20260507134020 82 182 0.9 6.1 0.00 0.00 0.00 69 1015.3
20260507133520 81 176 2.6 7.0 0.00 0.00 0.00 71 1015.4
20260507133042 80 131 3.5 7.0 0.00 0.00 0.00 73 1015.3
20260507132516 80 122 2.6 7.0 0.00 0.00 0.00 75 1015.2
20260507132020 79 121 2.6 7.0 0.00 0.00 0.00 75 1015.2
20260507131543 79 170 3.5 7.8 0.00 0.00 0.00 76 1015.3
20260507131017 78 169 1.7 7.8 0.00 0.00 0.00 78 1015.2
20260507130517 78 175 2.6 7.8 0.00 0.00 0.00 78 1015.2
20260507130038 77 138 2.6 7.0 0.00 0.00 0.00 78 1015.0
20260507125520 77 172 2.6 7.0 0.00 0.00 0.00 79 1015.1
20260507125017 76 115 2.6 7.0 0.00 0.00 0.00 80 1015.0
20260507124537 76 134 1.7 7.0 0.00 0.00 0.00 82 1015.0
20260507124021 75 111 2.6 7.0 0.00 0.00 0.00 83 1015.0
20260507123519 75 108 1.7 7.8 0.00 0.00 0.00 85 1015.0
20260507123036 74 165 2.6 7.8 0.00 0.00 0.00 86 1014.8
20260507122517 73 142 3.5 7.8 0.00 0.00 0.00 88 1014.9
20260507122017 72 144 1.7 7.0 0.00 0.00 0.00 91 1014.9
20260507121535 72 116 2.6 7.0 0.00 0.00 0.00 92 1014.8
20260507121017 71 150 0.9 5.2 0.00 0.00 0.00 94 1014.8
20260507120516 70 138 1.7 4.3 0.00 0.00 0.00 95 1014.9
20260507120043 69 94 0.9 3.5 0.00 0.00 0.00 95 1014.8
20260507115522 69 121 0.9 2.6 0.00 0.00 0.00 95 1014.8
20260507115021 68 136 0.0 1.7 0.00 0.00 0.00 95 1014.8
20260507114538 67 101 0.9 1.7 0.00 0.00 0.00 95 1014.9
20260507114016 66 0 0.0 0.9 0.00 0.00 0.00 95 1014.8
20260507113519 65 47 0.0 0.9 0.00 0.00 0.00 95 1014.8
20260507113040 65 0 0.0 0.0 0.00 0.00 0.00 95 1014.8
20260507112521 64 0 0.0 0.0 0.00 0.00 0.00 95 1014.7
20260507112020 65 0 0.0 0.0 0.00 0.00 0.00 95 1014.8
20260507111541 64 0 0.0 0.0 0.00 0.00 0.00 95 1014.7
20260507111020 64 0 0.0 0.0 0.00 0.00 0.00 95 1014.6
20260507110520 64 0 0.0 0.0 0.00 0.00 0.00 94 1014.6
20260507110037 65 0 0.0 0.0 0.00 0.00 0.00 95 1014.6
20260507105520 65 0 0.0 0.0 0.00 0.00 0.00 95 1014.5
20260507105017 65 0 0.0 0.0 0.00 0.00 0.00 95 1014.5
20260507104536 65 0 0.0 0.0 0.00 0.00 0.00 95 1014.4
20260507104017 65 0 0.0 0.0 0.00 0.00 0.00 95 1014.3
20260507103517 65 0 0.0 0.0 0.00 0.00 0.00 95 1014.3
20260507103042 65 0 0.0 0.0 0.00 0.00 0.00 95 1014.3
20260507102517 65 0 0.0 0.0 0.00 0.00 0.00 95 1014.3
20260507102017 65 0 0.0 0.0 0.00 0.00 0.00 95 1014.2
20260507101558 65 0 0.0 0.0 0.00 0.00 0.00 95 1014.3
20260507101016 65 0 0.0 0.0 0.00 0.00 0.00 95 1014.3
20260507100516 65 0 0.0 0.0 0.00 0.00 0.00 95 1014.3
20260507100039 64 0 0.0 0.0 0.00 0.00 0.00 95 1014.3
20260507095516 64 0 0.0 0.0 0.00 0.00 0.00 95 1014.3
20260507095017 65 0 0.0 0.0 0.00 0.00 0.00 95 1014.2
20260507094541 64 0 0.0 0.0 0.00 0.00 0.00 95 1014.2
20260507094017 64 0 0.0 0.0 0.00 0.00 0.00 95 1014.2
20260507093521 64 0 0.0 0.0 0.00 0.00 0.00 95 1014.1
20260507093036 65 0 0.0 0.0 0.00 0.00 0.00 95 1014.1
20260507092525 65 0 0.0 0.0 0.00 0.00 0.00 95 1014.0
20260507092019 64 0 0.0 0.0 0.00 0.00 0.00 95 1013.9
20260507091555 65 0 0.0 0.0 0.00 0.00 0.00 95 1013.8
20260507091020 64 0 0.0 0.0 0.00 0.00 0.00 95 1014.0
20260507090521 66 0 0.0 0.0 0.00 0.00 0.00 95 1013.9
20260507090038 66 0 0.0 0.0 0.00 0.00 0.00 95 1013.7
20260507085517 66 0 0.0 0.0 0.00 0.00 0.00 95 1013.6
20260507085017 65 0 0.0 0.0 0.00 0.00 0.00 95 1013.8
20260507084541 65 0 0.0 0.0 0.00 0.00 0.00 95 1013.8
20260507084020 65 0 0.0 0.0 0.00 0.00 0.00 95 1013.8
20260507083520 65 0 0.0 0.0 0.00 0.00 0.00 95 1013.8
20260507083041 65 0 0.0 0.0 0.00 0.00 0.00 95 1013.9
20260507082521 65 0 0.0 0.0 0.00 0.00 0.00 95 1013.9
20260507082020 65 0 0.0 0.0 0.00 0.00 0.00 95 1013.8
20260507081550 66 0 0.0 0.0 0.00 0.00 0.00 95 1013.8
20260507081020 66 0 0.0 0.0 0.00 0.00 0.00 95 1013.9
20260507080519 66 0 0.0 0.0 0.00 0.00 0.00 95 1013.7
20260507080036 66 0 0.0 0.0 0.00 0.00 0.00 95 1013.8
20260507075520 67 0 0.0 0.0 0.00 0.00 0.00 95 1013.6
20260507075020 67 0 0.0 0.0 0.00 0.00 0.00 95 1013.5
20260507074539 66 0 0.0 0.0 0.00 0.00 0.00 95 1013.5
20260507074016 66 0 0.0 0.0 0.00 0.00 0.00 95 1013.6
20260507073517 66 0 0.0 1.7 0.00 0.00 0.00 94 1013.6
20260507073044 66 0 0.0 1.7 0.00 0.00 0.00 94 1013.7
20260507072517 67 238 0.9 1.7 0.00 0.00 0.00 94 1013.7
20260507072024 67 0 0.0 0.9 0.00 0.00 0.00 94 1013.7
20260507071543 67 0 0.0 0.0 0.00 0.00 0.00 94 1013.5
20260507071020 68 0 0.0 0.0 0.00 0.00 0.00 94 1013.7
20260507070520 68 0 0.0 0.0 0.00 0.00 0.00 93 1013.8
20260507070055 68 0 0.0 0.0 0.00 0.00 0.00 94 1013.6
20260507065520 68 0 0.0 0.0 0.00 0.00 0.00 94 1013.8
20260507065020 68 0 0.0 0.0 0.00 0.00 0.00 94 1013.9
20260507064539 67 0 0.0 0.0 0.00 0.00 0.00 94 1014.1
20260507064020 67 0 0.0 0.0 0.00 0.00 0.00 93 1014.1
20260507063519 67 0 0.0 0.0 0.00 0.00 0.00 93 1014.3
20260507063036 67 0 0.0 0.0 0.00 0.00 0.00 93 1014.5
20260507062520 68 0 0.0 0.0 0.00 0.00 0.00 93 1014.5
20260507062020 68 0 0.0 0.0 0.00 0.00 0.00 93 1014.5
20260507061535 68 0 0.0 0.0 0.00 0.00 0.00 93 1014.7
20260507061019 68 0 0.0 0.0 0.00 0.00 0.00 93 1014.8
20260507060519 68 0 0.0 0.0 0.00 0.00 0.00 93 1014.7
20260507060035 68 0 0.0 0.0 0.00 0.00 0.00 94 1014.6
20260507055519 68 0 0.0 0.0 0.00 0.00 0.00 93 1015.0
20260507055024 68 0 0.0 0.0 0.00 0.00 0.00 94 1015.0
20260507054538 68 0 0.0 0.0 0.00 0.00 0.00 94 1015.1
20260507054017 68 0 0.0 0.0 0.00 0.00 0.00 93 1015.0
20260507053521 68 0 0.0 0.0 0.00 0.00 0.00 93 1015.1
20260507053043 67 0 0.0 0.0 0.00 0.00 0.00 93 1015.1
20260507052520 68 0 0.0 0.0 0.00 0.00 0.00 93 1015.2
20260507052018 68 0 0.0 0.0 0.00 0.00 0.00 93 1015.1
20260507051537 68 0 0.0 0.0 0.00 0.00 0.00 93 1015.2
20260507051021 69 0 0.0 0.9 0.00 0.00 0.00 92 1015.2
20260507050522 69 0 0.0 0.9 0.00 0.00 0.00 93 1015.2
20260507050036 69 0 0.0 0.0 0.00 0.00 0.00 93 1015.2
20260507045522 69 0 0.0 0.0 0.00 0.00 0.00 92 1015.3
20260507045023 69 0 0.0 0.0 0.00 0.00 0.00 92 1015.3
20260507044544 69 0 0.0 0.0 0.00 0.00 0.00 92 1015.4
20260507044020 70 0 0.0 0.0 0.00 0.00 0.00 93 1015.3
20260507043521 70 0 0.0 0.0 0.00 0.00 0.00 93 1015.5
20260507043042 70 0 0.0 0.0 0.00 0.00 0.00 92 1015.6
20260507042520 70 0 0.0 0.0 0.00 0.00 0.00 92 1015.6
20260507042019 70 0 0.0 0.0 0.00 0.00 0.00 92 1015.7
20260507041538 69 0 0.0 0.0 0.00 0.00 0.00 91 1015.9
20260507041020 70 0 0.0 0.0 0.00 0.00 0.00 92 1016.0
20260507040521 70 0 0.0 0.0 0.00 0.00 0.00 91 1015.6
20260507040041 70 0 0.0 0.0 0.00 0.00 0.00 91 1015.7
20260507035520 70 0 0.0 0.0 0.00 0.00 0.00 91 1015.6
20260507035020 70 0 0.0 0.0 0.00 0.00 0.00 90 1015.8
20260507034538 71 0 0.0 0.0 0.00 0.00 0.00 91 1015.8
20260507034020 71 0 0.0 0.0 0.00 0.00 0.00 91 1015.6
20260507033520 72 0 0.0 0.0 0.00 0.00 0.00 91 1015.6
20260507033035 72 0 0.0 0.0 0.00 0.00 0.00 90 1015.6
20260507032521 72 0 0.0 0.0 0.00 0.00 0.00 90 1015.7
20260507032019 72 0 0.0 0.0 0.00 0.00 0.00 90 1015.7
20260507031543 72 0 0.0 0.0 0.00 0.00 0.00 89 1015.8
20260507031020 72 0 0.0 0.0 0.00 0.00 0.00 88 1015.9
20260507030520 72 0 0.0 0.0 0.00 0.00 0.00 88 1015.8
20260507030042 73 0 0.0 0.0 0.00 0.00 0.00 87 1015.8
20260507025520 73 0 0.0 0.0 0.00 0.00 0.00 86 1015.8
20260507025020 74 0 0.0 0.0 0.00 0.00 0.00 86 1015.8
20260507024538 74 0 0.0 1.7 0.00 0.00 0.00 85 1015.7
20260507024019 75 0 0.0 2.6 0.00 0.00 0.00 85 1015.6
20260507023520 75 117 0.9 2.6 0.00 0.00 0.00 85 1015.5
20260507023038 75 134 0.9 2.6 0.00 0.00 0.00 85 1015.4
20260507022520 75 0 0.0 0.9 0.00 0.00 0.00 84 1015.3
20260507022021 75 0 0.0 1.7 0.00 0.00 0.00 85 1015.2
20260507021537 75 0 0.0 3.5 0.00 0.00 0.00 84 1015.0
20260507021020 75 267 0.9 5.2 0.00 0.00 0.00 84 1015.0
20260507020520 75 264 1.7 7.0 0.00 0.00 0.00 83 1015.0
20260507020035 75 284 1.7 7.0 0.00 0.00 0.00 82 1015.1
20260507015519 76 261 3.5 7.0 0.00 0.00 0.00 82 1015.0
20260507015020 76 281 2.6 7.0 0.00 0.00 0.00 81 1015.0
20260507014553 76 264 1.7 7.0 0.00 0.00 0.00 80 1015.0
20260507014018 76 279 3.5 7.0 0.00 0.00 0.00 80 1014.8
20260507013519 76 290 3.5 6.1 0.00 0.00 0.00 79 1014.8
20260507013041 77 261 2.6 6.1 0.00 0.00 0.00 78 1014.7
20260507012521 77 284 1.7 6.1 0.00 0.00 0.00 77 1014.6
20260507012023 77 274 2.6 6.1 0.00 0.00 0.00 76 1014.8
20260507011541 77 283 2.6 6.1 0.00 0.00 0.00 75 1014.8
20260507011020 78 289 2.6 6.1 0.00 0.00 0.00 75 1014.9
20260507010523 78 288 2.6 6.1 0.00 0.00 0.00 74 1014.9
20260507010042 78 259 3.5 6.1 0.00 0.00 0.00 74 1014.7
20260507005526 78 291 2.6 6.1 0.00 0.00 0.00 74 1014.7
20260507005025 78 265 3.5 7.8 0.00 0.00 0.00 73 1014.7
20260507004541 79 271 3.5 7.8 0.00 0.00 0.00 73 1014.7
20260507004020 79 263 4.3 7.8 0.00 0.00 0.00 73 1014.6
20260507003518 79 254 4.3 7.8 0.00 0.00 0.00 73 1014.6
20260507003035 80 261 3.5 7.8 0.00 0.00 0.00 74 1014.6
20260507002522 80 267 4.3 7.8 0.00 0.00 0.00 73 1014.5
20260507002020 80 273 3.5 8.7 0.00 0.00 0.00 73 1014.4
20260507001534 80 271 5.2 9.6 0.00 0.00 0.00 73 1014.4
20260507001022 81 285 4.3 9.6 0.00 0.00 0.00 72 1014.2
20260507000518 81 270 6.1 9.6 0.00 0.00 0.00 72 1014.3
20260507000044 81 285 5.2 8.7 0.00 0.00 0.00 71 1014.3
20260506235518 81 267 4.3 8.7 0.00 0.00 0.00 71 1014.2
20260506235017 82 269 4.3 8.7 0.00 0.00 0.00 71 1014.1
20260506234541 82 276 3.5 11.3 0.00 0.00 0.00 70 1014.2
20260506234018 83 290 6.1 11.3 0.00 0.00 0.00 68 1014.2
20260506233518 83 279 7.8 11.3 0.00 0.00 0.00 68 1014.1
20260506233037 84 265 6.1 8.7 0.00 0.00 0.00 69 1014.1
20260506232517 84 263 3.5 8.7 0.00 0.00 0.00 69 1014.2
20260506232017 84 279 5.2 9.6 0.00 0.00 0.00 68 1014.1
20260506231537 84 255 6.1 11.3 0.00 0.00 0.00 67 1014.1
20260506231021 84 267 6.1 12.2 0.00 0.00 0.00 67 1014.2
20260506230518 85 261 7.8 12.2 0.00 0.00 0.00 66 1014.0
20260506230036 85 268 6.1 9.6 0.00 0.00 0.00 65 1014.0
20260506225517 85 285 4.3 12.2 0.00 0.00 0.00 65 1013.9
20260506225018 86 281 6.1 12.2 0.00 0.00 0.00 65 1013.9
20260506224543 86 288 5.2 12.2 0.00 0.00 0.00 65 1013.9
20260506224017 86 280 7.0 12.2 0.00 0.00 0.00 65 1013.9
20260506223517 87 254 7.8 12.2 0.00 0.00 0.00 63 1013.9
20260506223041 87 252 7.0 11.3 0.00 0.00 0.00 63 1013.9
20260506222518 88 286 7.8 11.3 0.00 0.00 0.00 62 1013.9
20260506222018 88 273 6.1 11.3 0.00 0.00 0.00 62 1013.8
20260506221544 88 282 6.1 14.8 0.00 0.00 0.00 61 1013.9
20260506221017 90 256 8.7 14.8 0.00 0.00 0.00 56 1013.8
20260506220517 92 285 2.6 6.1 0.00 0.00 0.00 43 1013.8
20260506220042 91 244 1.7 5.2 0.00 0.00 0.00 43 1013.9
20260506215517 92 243 0.9 6.1 0.00 0.00 0.00 41 1013.8
20260506215017 94 258 0.9 7.8 0.00 0.00 0.00 40 1013.8
20260506214538 94 254 5.2 7.8 0.00 0.00 0.00 41 1013.7
20260506214016 93 278 0.0 2.6 0.00 0.00 0.00 39 1013.7
20260506213517 94 0 0.0 6.1 0.00 0.00 0.00 38 1013.8
20260506213036 94 0 1.7 7.8 0.00 0.00 0.00 39 1013.9
20260506212517 94 276 0.9 7.8 0.00 0.00 0.00 39 1013.9
20260506212019 95 248 1.7 4.3 0.00 0.00 0.00 37 1014.0
20260506211542 94 172 0.0 6.1 0.00 0.00 0.00 39 1013.9
20260506211018 94 160 0.9 6.1 0.00 0.00 0.00 40 1013.9
20260506210520 94 278 0.9 5.2 0.00 0.00 0.00 40 1013.9
20260506210044 94 43 2.6 7.0 0.00 0.00 0.00 38 1013.9
20260506205520 96 58 2.6 7.0 0.00 0.00 0.00 38 1013.9
20260506205018 96 103 0.9 6.1 0.00 0.00 0.00 38 1013.9
20260506204541 96 188 0.9 6.1 0.00 0.00 0.00 37 1013.9
20260506204017 95 222 0.9 7.8 0.00 0.00 0.00 38 1013.9
20260506203517 94 263 1.7 7.8 0.00 0.00 0.00 39 1013.9
20260506203048 94 158 1.7 7.8 0.00 0.00 0.00 40 1013.9
20260506202517 93 0 0.0 4.3 0.00 0.00 0.00 43 1014.0
20260506202017 92 170 0.0 3.5 0.00 0.00 0.00 41 1014.0
20260506201545 92 0 0.9 7.0 0.00 0.00 0.00 42 1014.1
20260506201018 91 298 0.9 8.7 0.00 0.00 0.00 42 1014.0
20260506200517 93 293 4.3 9.6 0.00 0.00 0.00 39 1014.1
20260506200037 94 263 6.1 9.6 0.00 0.00 0.00 40 1014.1
20260506195520 94 266 5.2 9.6 0.00 0.00 0.00 38 1014.1
20260506195020 94 182 0.0 2.6 0.00 0.00 0.00 39 1014.1
20260506194540 95 0 0.0 2.6 0.00 0.00 0.00 39 1014.2
20260506194018 93 98 0.0 2.6 0.00 0.00 0.00 38 1014.2
20260506193518 94 211 0.9 6.1 0.00 0.00 0.00 39 1014.3
20260506193042 94 53 0.9 7.0 0.00 0.00 0.00 38 1014.4
20260506192524 94 142 3.5 7.0 0.00 0.00 0.00 39 1014.5
20260506192020 94 242 0.9 6.1 0.00 0.00 0.00 40 1014.4
20260506191541 94 182 0.9 6.1 0.00 0.00 0.00 39 1014.6
20260506191017 95 213 1.7 6.1 0.00 0.00 0.00 40 1014.6
20260506190517 95 0 1.7 6.1 0.00 0.00 0.00 41 1014.6
20260506190038 94 278 0.9 7.0 0.00 0.00 0.00 41 1014.7
20260506185519 94 117 1.7 7.0 0.00 0.00 0.00 40 1014.8
20260506185020 94 150 1.7 7.0 0.00 0.00 0.00 41 1014.9
20260506184547 95 59 0.9 6.1 0.00 0.00 0.00 38 1014.9
20260506184017 93 121 2.6 7.0 0.00 0.00 0.00 40 1015.0
20260506183518 93 85 1.7 7.8 0.00 0.00 0.00 40 1015.1
20260506183034 92 167 3.5 7.8 0.00 0.00 0.00 42 1015.3
20260506182520 92 130 1.7 7.0 0.00 0.00 0.00 43 1015.3
20260506182018 93 262 2.6 7.0 0.00 0.00 0.00 42 1015.3
20260506181541 94 168 0.9 5.2 0.00 0.00 0.00 42 1015.2
20260506181017 92 170 0.9 7.0 0.00 0.00 0.00 44 1015.2
20260506180522 92 50 0.9 7.0 0.00 0.00 0.00 42 1015.2
20260506180040 92 107 2.6 7.0 0.00 0.00 0.00 44 1015.3
20260506175521 92 120 2.6 7.0 0.00 0.00 0.00 42 1015.4
20260506175020 92 119 3.5 7.0 0.00 0.00 0.00 44 1015.4
20260506174538 92 142 1.7 7.8 0.00 0.00 0.00 42 1015.5
20260506174019 91 0 0.9 7.8 0.00 0.00 0.00 43 1015.6
20260506173520 91 181 2.6 7.8 0.00 0.00 0.00 45 1015.7
20260506173046 90 285 2.6 10.4 0.00 0.00 0.00 47 1015.7
20260506172517 92 176 2.6 10.4 0.00 0.00 0.00 46 1015.8
20260506172024 90 132 0.9 5.2 0.00 0.00 0.00 48 1015.7
20260506171550 92 273 1.7 9.6 0.00 0.00 0.00 45 1015.8
20260506171021 91 174 1.7 10.4 0.00 0.00 0.00 48 1015.9
20260506170521 89 268 5.2 10.4 0.00 0.00 0.00 49 1015.9
20260506170035 89 269 1.7 7.0 0.00 0.00 0.00 47 1015.9
20260506165521 89 241 0.0 8.7 0.00 0.00 0.00 48 1015.9
20260506165020 90 257 1.7 8.7 0.00 0.00 0.00 47 1016.0
20260506164543 91 166 1.7 8.7 0.00 0.00 0.00 48 1016.0
20260506164023 89 76 2.6 8.7 0.00 0.00 0.00 47 1016.0
20260506163523 90 164 2.6 7.8 0.00 0.00 0.00 48 1016.2
20260506163058 90 27 1.7 6.1 0.00 0.00 0.00 45 1016.2
20260506162522 89 135 1.7 7.8 0.00 0.00 0.00 50 1016.3
20260506162017 88 66 2.6 7.8 0.00 0.00 0.00 50 1016.3
20260506161544 88 104 1.7 7.8 0.00 0.00 0.00 49 1016.4
20260506161017 87 219 1.7 5.2 0.00 0.00 0.00 51 1016.5
20260506160523 87 275 1.7 7.8 0.00 0.00 0.00 53 1016.5
20260506160042 88 166 1.7 7.8 0.00 0.00 0.00 51 1016.5
20260506155520 88 150 0.9 7.8 0.00 0.00 0.00 53 1016.6
20260506155017 88 211 0.9 7.8 0.00 0.00 0.00 52 1016.7
20260506154540 87 242 3.5 7.8 0.00 0.00 0.00 53 1016.7
20260506154022 86 153 2.6 7.0 0.00 0.00 0.00 53 1016.6
20260506153516 87 142 0.9 7.8 0.00 0.00 0.00 54 1016.5
20260506153039 87 166 1.7 7.8 0.00 0.00 0.00 52 1016.6
20260506152521 87 163 1.7 7.0 0.00 0.00 0.00 53 1016.6
20260506152017 87 111 1.7 6.1 0.00 0.00 0.00 54 1016.6
20260506151535 87 206 1.7 7.0 0.00 0.00 0.00 55 1016.6
20260506151019 85 113 3.5 7.0 0.00 0.00 0.00 56 1016.5
20260506150520 86 149 2.6 9.6 0.00 0.00 0.00 55 1016.4
20260506150040 85 163 3.5 9.6 0.00 0.00 0.00 57 1016.5
20260506145521 85 153 1.7 7.8 0.00 0.00 0.00 58 1016.5
20260506145021 84 219 3.5 8.7 0.00 0.00 0.00 58 1016.3
20260506144538 84 235 1.7 8.7 0.00 0.00 0.00 61 1016.5
20260506144017 84 91 2.6 8.7 0.00 0.00 0.00 61 1016.4
20260506143516 83 182 4.3 8.7 0.00 0.00 0.00 60 1016.3
20260506143037 83 169 2.6 8.7 0.00 0.00 0.00 63 1016.3
20260506142516 83 129 2.6 7.0 0.00 0.00 0.00 63 1016.3
20260506142017 82 162 1.7 7.0 0.00 0.00 0.00 64 1016.3
20260506141534 82 180 3.5 7.0 0.00 0.00 0.00 65 1016.3
20260506141017 82 133 1.7 8.7 0.00 0.00 0.00 70 1016.4
20260506140522 80 170 3.5 8.7 0.00 0.00 0.00 68 1016.4
20260506140042 80 168 3.5 7.8 0.00 0.00 0.00 69 1016.4
20260506135517 79 117 4.3 7.8 0.00 0.00 0.00 71 1016.3